Chillicothe, MO

9:31 AM CST on November 12, 2019 (GMT -0600)
Chillicothe

Weather History for KCDJ - September, 2019

Change the Weather History Date:

Tuesday, September 24, 2019

  Actual Average (KIRK) Record (KIRK)
Temperature  
Mean Temperature 68 °F -  
Max Temperature 81 °F 72 °F 91 °F (1935)
Min Temperature 55 °F 48 °F 30 °F (1989)
Cooling Degree Days 2    
Growing Degree Days 18 (Base 50)    
Moisture  
Dew Point 63 °F    
Average Humidity 84    
Maximum Humidity 100    
Minimum Humidity 62    
Precipitation  
Precipitation 0.00 in - - ()
Sea Level Pressure  
Sea Level Pressure 29.88 in    
Wind  
Wind Speed 3 mph (South)    
Max Wind Speed 10 mph    
Max Gust Speed 23 mph    
Averages and records for this station are not official NWS values.
T = Trace of Precipitation, MM = Missing Value Source: NWS Daily Summary

Daily Weather History Graph

Daily Weather History Graph

Search for Another Location

Airport or City:

Astronomy

Sep. 24, 2019 Rise Set
Actual Time 7:03 AM CDT 7:08 PM CDT
Civil Twilight 6:36 AM CDT 7:35 PM CDT
Nautical Twilight 6:05 AM CDT 8:06 PM CDT
Astronomical Twilight 5:33 AM CDT 8:38 PM CDT
Moon 1:50 AM CDT (9/24) 4:54 PM CDT (9/24)
Length of Visible Light 12h 58m
Length of Day
12h 04m
Waning Crescent, 23% of the Moon is Illuminated
Sep 24
Waning Crescent
Sep 28
New
Oct 5
First Quarter
Oct 13
Full
Oct 21
Last Quarter

Hourly Weather History & Observations

Time (CDT) Temp. Heat Index Dew Point Humidity Pressure Visibility Wind Dir Wind Speed Gust Speed Precip Events Conditions
12:52 AM 60.1 °F - 60.1 °F 100% 30.00 in - Calm Calm - N/A   Unknown
1:52 AM 59.0 °F - 57.9 °F 96% 30.00 in - Calm Calm - N/A   Unknown
2:52 AM 57.0 °F - 57.0 °F 100% 29.99 in - Calm Calm - N/A   Unknown
3:52 AM 57.0 °F - 55.9 °F 96% 29.98 in - Calm Calm - N/A   Unknown
4:52 AM 57.0 °F - 55.9 °F 96% 29.97 in - Calm Calm - N/A   Unknown
6:52 AM 55.0 °F - 55.0 °F 100% 29.98 in - Calm Calm - N/A   Unknown
7:52 AM 57.9 °F - 57.0 °F 97% 29.97 in - Calm Calm - N/A   Unknown
8:52 AM 62.1 °F - 59.0 °F 90% 29.97 in - Calm Calm - N/A   Unknown
9:52 AM 66.0 °F - 60.1 °F 81% 29.96 in - South 5.8 mph - N/A   Unknown
10:52 AM 71.1 °F - 61.0 °F 70% 29.94 in - SSW 9.2 mph - N/A   Unknown
11:52 AM 73.9 °F - 63.0 °F 68% 29.92 in - SSW 5.8 mph - N/A   Unknown
12:52 PM 77.0 °F - 64.9 °F 66% 29.90 in - SSW 9.2 mph - N/A   Unknown
1:52 PM 80.1 °F 82.1 °F 66.0 °F 62% 29.86 in - South 9.2 mph 23.0 mph N/A   Unknown
3:52 PM 78.1 °F - 68.0 °F 71% 29.83 in - SSE 9.2 mph - N/A   Unknown
4:52 PM 77.0 °F - 66.9 °F 71% 29.79 in - SSE 10.4 mph 20.7 mph N/A   Unknown
5:52 PM 75.9 °F - 66.9 °F 74% 29.78 in - South 9.2 mph - N/A   Unknown
6:52 PM 75.0 °F - 66.9 °F 76% 29.78 in - South 6.9 mph - N/A   Unknown
7:52 PM 72.0 °F - 66.9 °F 84% 29.78 in - South 8.1 mph - N/A   Unknown
8:52 PM 71.1 °F - 68.0 °F 90% 29.77 in - South 8.1 mph 17.3 mph N/A   Unknown
9:52 PM 70.0 °F - 66.9 °F 90% 29.77 in - South 8.1 mph - N/A   Unknown
10:52 PM 69.1 °F - 66.0 °F 90% 29.76 in - South 8.1 mph - N/A   Unknown
11:52 PM 69.1 °F - 66.0 °F 90% 29.76 in - South 5.8 mph 16.1 mph N/A   Unknown